Location: Zilina
(49.2170°N, 18.7330°E)
Time: 12:25:42
(UTC+02:00)

ISS - Pass Details

Date: 01 April 2019
Orbit: 408 x 410 km, 51.6° (Epoch: 25 April)

Event Time Altitude Azimuth Distance (km) Brightness Sun altitude
Rises 21:46:51 0° 289° (WNW) 2,338 1.2 -23.2°
Reaches altitude 10° 21:48:58 10° 284° (WNW) 1,474 -0.1 -23.5°
Enters shadow 21:50:55 30° 266° (W) 760 -2.1 -23.7°
